Simultaneous Nadir Overpasses (SNOs) Predictions

Prediction of SNOs between GOES-16 and METOP-B Satellite Orbit:

Table of predicted SNOs for the next 14.0 days since TLE Epoch: 6/1/2024
Index Date Time (GOES-16) GOES-16 Lat,Lon METOP-B Lat,Lon Distance(km) Time Diff (sec)
1 06/02/2024 02:37:40 -0.05, -75.20 -0.93, -79.01 434.14 80
2 06/03/2024 02:19:37 -0.06, -75.21 0.18, -74.00 136.34 80
3 06/04/2024 14:35:44 0.05, -75.22 0.80, -78.57 381.00 80
4 06/05/2024 14:17:42 0.05, -75.23 -0.32, -73.56 189.61 80
5 06/07/2024 02:36:38 -0.04, -75.24 -0.68, -78.16 332.94 80
6 06/08/2024 02:13:16 -0.04, -75.25 0.44, -73.16 237.91 80
7 06/09/2024 14:32:02 0.03, -75.27 0.59, -77.71 278.50 80
8 06/10/2024 14:14:00 0.03, -75.29 -0.53, -72.71 292.95 80
9 06/12/2024 02:32:56 -0.03, -75.31 -0.45, -77.31 227.89 80
10 06/13/2024 02:09:32 -0.02, -75.33 0.62, -72.30 344.13 80
11 06/14/2024 14:28:20 0.02, -75.36 0.34, -76.86 170.57 80
